| time (UTC) | temp C | wind direction | speed KPH | gust KPH | rain 1hr cm | rain 24hr cm | rain mn cm | humidity % | barometer mb |
| 20260504025100 | 25 | 5 | 0.0 | 0.0 | 0.00 | 0.00 | 0.00 | 39 | 994.2 |
| 20260504024539 | 26 | 5 | 0.0 | 3.2 | 0.00 | 0.00 | 0.00 | 38 | 994.2 |
| 20260504024009 | 26 | 5 | 0.0 | 3.2 | 0.00 | 0.00 | 0.00 | 37 | 994.1 |
| 20260504023600 | 26 | 5 | 0.0 | 3.2 | 0.00 | 0.00 | 0.00 | 36 | 994.2 |
| 20260504023019 | 26 | 5 | 0.0 | 1.6 | 0.00 | 0.00 | 0.00 | 36 | 994.1 |
| 20260504022507 | 26 | 5 | 0.0 | 1.6 | 0.00 | 0.00 | 0.00 | 35 | 994.1 |
| 20260504022056 | 26 | 5 | 0.0 | 1.6 | 0.00 | 0.00 | 0.00 | 34 | 994.2 |
| 20260504021525 | 26 | 5 | 0.0 | 1.6 | 0.00 | 0.00 | 0.00 | 34 | 994.1 |
| 20260504021012 | 27 | 5 | 0.0 | 3.2 | 0.00 | 0.00 | 0.00 | 34 | 994.2 |
| 20260504020604 | 27 | 5 | 0.0 | 3.2 | 0.00 | 0.00 | 0.00 | 33 | 994.2 |
| 20260504020020 | 27 | 5 | 0.0 | 4.8 | 0.00 | 0.00 | 0.00 | 33 | 994.2 |
| 20260504015505 | 27 | 5 | 1.6 | 4.8 | 0.00 | 0.00 | 0.00 | 32 | 994.2 |
| 20260504015052 | 27 | 10 | 0.0 | 4.8 | 0.00 | 0.00 | 0.00 | 32 | 994.3 |
| 20260504014513 | 27 | 10 | 1.6 | 4.8 | 0.00 | 0.00 | 0.00 | 32 | 994.3 |
| 20260504014002 | 28 | 5 | 0.0 | 4.8 | 0.00 | 0.00 | 0.00 | 32 | 994.3 |
| 20260504013552 | 28 | 307 | 0.0 | 4.8 | 0.00 | 0.00 | 0.00 | 32 | 994.3 |
| 20260504013014 | 28 | 355 | 0.0 | 6.4 | 0.00 | 0.00 | 0.00 | 31 | 994.4 |
| 20260504012601 | 28 | 277 | 1.6 | 6.4 | 0.00 | 0.00 | 0.00 | 30 | 994.3 |
| 20260504012051 | 28 | 355 | 1.6 | 8.0 | 0.00 | 0.00 | 0.00 | 30 | 994.3 |
| 20260504011514 | 29 | 284 | 1.6 | 8.0 | 0.00 | 0.00 | 0.00 | 29 | 994.4 |
| 20260504011003 | 29 | 23 | 3.2 | 8.0 | 0.00 | 0.00 | 0.00 | 30 | 994.4 |
| 20260504010553 | 29 | 5 | 1.6 | 8.0 | 0.00 | 0.00 | 0.00 | 30 | 994.5 |
| 20260504010013 | 29 | 355 | 1.6 | 8.0 | 0.00 | 0.00 | 0.00 | 29 | 994.6 |
| 20260504005606 | 30 | 39 | 0.0 | 12.9 | 0.00 | 0.00 | 0.00 | 30 | 994.7 |
| 20260504005051 | 30 | 355 | 4.8 | 12.9 | 0.00 | 0.00 | 0.00 | 28 | 994.7 |
| 20260504004527 | 30 | 5 | 3.2 | 8.0 | 0.00 | 0.00 | 0.00 | 27 | 994.8 |
| 20260504004102 | 30 | 14 | 3.2 | 9.7 | 0.00 | 0.00 | 0.00 | 27 | 994.8 |
| 20260504003552 | 30 | 205 | 1.6 | 9.7 | 0.00 | 0.00 | 0.00 | 29 | 994.9 |
| 20260504003011 | 30 | 19 | 3.2 | 12.9 | 0.00 | 0.00 | 0.00 | 30 | 994.9 |
| 20260504002601 | 30 | 136 | 3.2 | 12.9 | 0.00 | 0.00 | 0.00 | 29 | 994.9 |
| 20260504002052 | 30 | 360 | 3.2 | 9.7 | 0.00 | 0.00 | 0.00 | 27 | 994.9 |
| 20260504001510 | 30 | 288 | 1.6 | 14.5 | 0.00 | 0.00 | 0.00 | 29 | 994.9 |
| 20260504001105 | 30 | 22 | 3.2 | 14.5 | 0.00 | 0.00 | 0.00 | 29 | 994.8 |
| 20260504000548 | 31 | 290 | 3.2 | 8.0 | 0.00 | 0.00 | 0.00 | 28 | 994.9 |
| 20260504000008 | 31 | 331 | 3.2 | 12.9 | 0.00 | 0.00 | 0.00 | 29 | 994.9 |
| 20260503235559 | 31 | 62 | 6.4 | 12.9 | 0.00 | 0.00 | 0.00 | 26 | 994.9 |
| 20260503235048 | 30 | 275 | 3.2 | 9.7 | 0.00 | 0.00 | 0.00 | 32 | 994.9 |
| 20260503234507 | 31 | 348 | 3.2 | 16.1 | 0.00 | 0.00 | 0.00 | 34 | 995.0 |
| 20260503234059 | 31 | 5 | 3.2 | 16.1 | 0.00 | 0.00 | 0.00 | 27 | 995.0 |
| 20260503233546 | 31 | 13 | 6.4 | 12.9 | 0.00 | 0.00 | 0.00 | 31 | 995.1 |
| 20260503233017 | 31 | 344 | 4.8 | 12.9 | 0.00 | 0.00 | 0.00 | 31 | 995.1 |
| 20260503232505 | 31 | 49 | 6.4 | 12.9 | 0.00 | 0.00 | 0.00 | 31 | 995.2 |
| 20260503232058 | 31 | 5 | 4.8 | 11.3 | 0.00 | 0.00 | 0.00 | 30 | 995.3 |
| 20260503231515 | 31 | 349 | 4.8 | 16.1 | 0.00 | 0.00 | 0.00 | 34 | 995.3 |
| 20260503231005 | 31 | 313 | 6.4 | 14.5 | 0.00 | 0.00 | 0.00 | 34 | 995.3 |
| 20260503230553 | 31 | 296 | 4.8 | 14.5 | 0.00 | 0.00 | 0.00 | 38 | 995.4 |
| 20260503230009 | 31 | 50 | 1.6 | 12.9 | 0.00 | 0.00 | 0.00 | 30 | 995.4 |
| 20260503225554 | 31 | 355 | 4.8 | 14.5 | 0.00 | 0.00 | 0.00 | 29 | 995.5 |
| 20260503225042 | 31 | 49 | 4.8 | 12.9 | 0.00 | 0.00 | 0.00 | 34 | 995.7 |
| 20260503224511 | 31 | 282 | 3.2 | 12.9 | 0.00 | 0.00 | 0.00 | 31 | 995.8 |
| 20260503224101 | 31 | 52 | 3.2 | 12.9 | 0.00 | 0.00 | 0.00 | 30 | 995.9 |
| 20260503223549 | 31 | 85 | 6.4 | 11.3 | 0.00 | 0.00 | 0.00 | 33 | 995.9 |
| 20260503223009 | 31 | 236 | 3.2 | 9.7 | 0.00 | 0.00 | 0.00 | 30 | 996.0 |
| 20260503222558 | 31 | 60 | 4.8 | 9.7 | 0.00 | 0.00 | 0.00 | 31 | 996.0 |
| 20260503222047 | 31 | 355 | 0.0 | 9.7 | 0.00 | 0.00 | 0.00 | 30 | 996.1 |
| 20260503221508 | 31 | 338 | 6.4 | 9.7 | 0.00 | 0.00 | 0.00 | 31 | 996.2 |
| 20260503221103 | 31 | 55 | 4.8 | 12.9 | 0.00 | 0.00 | 0.00 | 31 | 996.3 |
| 20260503220547 | 31 | 360 | 6.4 | 12.9 | 0.00 | 0.00 | 0.00 | 32 | 996.4 |
| 20260503220006 | 31 | 337 | 3.2 | 8.0 | 0.00 | 0.00 | 0.00 | 32 | 996.6 |
| 20260503215555 | 31 | 50 | 3.2 | 14.5 | 0.00 | 0.00 | 0.00 | 33 | 996.6 |
| 20260503215041 | 30 | 48 | 6.4 | 14.5 | 0.00 | 0.00 | 0.00 | 34 | 996.8 |
| 20260503214502 | 30 | 9 | 1.6 | 11.3 | 0.00 | 0.00 | 0.00 | 38 | 996.9 |
| 20260503214053 | 30 | 300 | 6.4 | 11.3 | 0.00 | 0.00 | 0.00 | 38 | 997.0 |
| 20260503213542 | 30 | 252 | 4.8 | 11.3 | 0.00 | 0.00 | 0.00 | 36 | 997.0 |
| 20260503213016 | 30 | 329 | 1.6 | 12.9 | 0.00 | 0.00 | 0.00 | 40 | 997.0 |
| 20260503212602 | 30 | 46 | 4.8 | 12.9 | 0.00 | 0.00 | 0.00 | 38 | 997.1 |
| 20260503212051 | 30 | 292 | 3.2 | 12.9 | 0.00 | 0.00 | 0.00 | 36 | 997.1 |
| 20260503211511 | 30 | 348 | 6.4 | 12.9 | 0.00 | 0.00 | 0.00 | 41 | 997.1 |
| 20260503211102 | 30 | 270 | 1.6 | 11.3 | 0.00 | 0.00 | 0.00 | 35 | 997.2 |
| 20260503210549 | 30 | 49 | 4.8 | 14.5 | 0.00 | 0.00 | 0.00 | 41 | 997.2 |
| 20260503210005 | 30 | 43 | 4.8 | 14.5 | 0.00 | 0.00 | 0.00 | 39 | 997.3 |
| 20260503205555 | 30 | 51 | 3.2 | 14.5 | 0.00 | 0.00 | 0.00 | 37 | 997.3 |
| 20260503205044 | 30 | 331 | 4.8 | 14.5 | 0.00 | 0.00 | 0.00 | 36 | 997.4 |
| 20260503204503 | 30 | 30 | 3.2 | 12.9 | 0.00 | 0.00 | 0.00 | 44 | 997.5 |
| 20260503204053 | 29 | 18 | 1.6 | 16.1 | 0.00 | 0.00 | 0.00 | 40 | 997.6 |
| 20260503203542 | 29 | 275 | 3.2 | 16.1 | 0.00 | 0.00 | 0.00 | 39 | 997.7 |
| 20260503203004 | 29 | 333 | 4.8 | 14.5 | 0.00 | 0.00 | 0.00 | 41 | 997.7 |
| 20260503202555 | 29 | 350 | 8.0 | 14.5 | 0.00 | 0.00 | 0.00 | 41 | 997.8 |
| 20260503202042 | 28 | 300 | 4.8 | 12.9 | 0.00 | 0.00 | 0.00 | 42 | 997.9 |
| 20260503201512 | 28 | 347 | 3.2 | 16.1 | 0.00 | 0.00 | 0.00 | 40 | 997.9 |
| 20260503201105 | 28 | 17 | 4.8 | 16.1 | 0.00 | 0.00 | 0.00 | 47 | 997.9 |
| 20260503200549 | 28 | 14 | 4.8 | 14.5 | 0.00 | 0.00 | 0.00 | 43 | 998.0 |
| 20260503200007 | 28 | 273 | 1.6 | 8.0 | 0.00 | 0.00 | 0.00 | 45 | 998.1 |
| 20260503195558 | 28 | 32 | 4.8 | 11.3 | 0.00 | 0.00 | 0.00 | 47 | 998.2 |
| 20260503195048 | 27 | 87 | 3.2 | 11.3 | 0.00 | 0.00 | 0.00 | 44 | 998.3 |
| 20260503194508 | 27 | 317 | 3.2 | 9.7 | 0.00 | 0.00 | 0.00 | 45 | 998.3 |
| 20260503194058 | 27 | 284 | 3.2 | 9.7 | 0.00 | 0.00 | 0.00 | 45 | 998.4 |
| 20260503193547 | 27 | 295 | 3.2 | 8.0 | 0.00 | 0.00 | 0.00 | 47 | 998.5 |
| 20260503193011 | 27 | 125 | 1.6 | 9.7 | 0.00 | 0.00 | 0.00 | 45 | 998.5 |
| 20260503192555 | 26 | 333 | 4.8 | 9.7 | 0.00 | 0.00 | 0.00 | 47 | 998.6 |
| 20260503192042 | 26 | 328 | 6.4 | 9.7 | 0.00 | 0.00 | 0.00 | 48 | 998.6 |
| 20260503191501 | 26 | 61 | 1.6 | 9.7 | 0.00 | 0.00 | 0.00 | 46 | 998.7 |
| 20260503191051 | 26 | 53 | 3.2 | 8.0 | 0.00 | 0.00 | 0.00 | 51 | 998.7 |
| 20260503190540 | 26 | 82 | 3.2 | 8.0 | 0.00 | 0.00 | 0.00 | 50 | 998.7 |
| 20260503190009 | 26 | 67 | 1.6 | 9.7 | 0.00 | 0.00 | 0.00 | 51 | 998.7 |
| 20260503185556 | 25 | 355 | 1.6 | 6.4 | 0.00 | 0.00 | 0.00 | 48 | 998.7 |
| 20260503185044 | 25 | 355 | 3.2 | 11.3 | 0.00 | 0.00 | 0.00 | 53 | 998.8 |
| 20260503184504 | 25 | 281 | 4.8 | 11.3 | 0.00 | 0.00 | 0.00 | 52 | 999.0 |
| 20260503184052 | 25 | 9 | 1.6 | 11.3 | 0.00 | 0.00 | 0.00 | 52 | 999.0 |
| 20260503183540 | 25 | 273 | 3.2 | 11.3 | 0.00 | 0.00 | 0.00 | 52 | 999.1 |
| 20260503183001 | 25 | 306 | 0.0 | 8.0 | 0.00 | 0.00 | 0.00 | 52 | 999.2 |
| 20260503182554 | 24 | 303 | 3.2 | 6.4 | 0.00 | 0.00 | 0.00 | 56 | 999.3 |
| 20260503182041 | 23 | 61 | 1.6 | 9.7 | 0.00 | 0.00 | 0.00 | 55 | 999.3 |
| 20260503181603 | 23 | 273 | 4.8 | 9.7 | 0.00 | 0.00 | 0.00 | 54 | 999.3 |
| 20260503181049 | 23 | 336 | 4.8 | 11.3 | 0.00 | 0.00 | 0.00 | 54 | 999.4 |
| 20260503180537 | 23 | 290 | 1.6 | 8.0 | 0.00 | 0.00 | 0.00 | 56 | 999.4 |
| 20260503180100 | 23 | 313 | 3.2 | 8.0 | 0.00 | 0.03 | 0.00 | 55 | 999.4 |
| 20260503175546 | 23 | 268 | 3.2 | 9.7 | 0.00 | 0.03 | 0.00 | 59 | 999.4 |
| 20260503175033 | 23 | 289 | 3.2 | 9.7 | 0.00 | 0.03 | 0.00 | 59 | 999.4 |
| 20260503174504 | 22 | 298 | 4.8 | 9.7 | 0.00 | 0.03 | 0.00 | 57 | 999.4 |
| 20260503174053 | 22 | 323 | 4.8 | 11.3 | 0.00 | 0.03 | 0.00 | 57 | 999.5 |
| 20260503173539 | 22 | 300 | 4.8 | 11.3 | 0.00 | 0.03 | 0.00 | 58 | 999.6 |
| 20260503173108 | 22 | 310 | 3.2 | 11.3 | 0.00 | 0.03 | 0.00 | 58 | 999.6 |
| 20260503172553 | 22 | 299 | 4.8 | 11.3 | 0.00 | 0.03 | 0.00 | 60 | 999.6 |
| 20260503172040 | 22 | 36 | 3.2 | 14.5 | 0.00 | 0.03 | 0.00 | 61 | 999.6 |
| 20260503171604 | 22 | 325 | 4.8 | 14.5 | 0.00 | 0.03 | 0.00 | 60 | 999.6 |
| 20260503171051 | 21 | 297 | 3.2 | 12.9 | 0.00 | 0.03 | 0.00 | 61 | 999.6 |
| 20260503170539 | 21 | 349 | 6.4 | 12.9 | 0.00 | 0.03 | 0.00 | 62 | 999.6 |
| 20260503170103 | 21 | 327 | 4.8 | 12.9 | 0.00 | 0.03 | 0.00 | 59 | 999.6 |
| 20260503150551 | 16 | 199 | 0.0 | 0.0 | 0.00 | 0.03 | 0.00 | 83 | 999.8 |
| 20260503131059 | 12 | 211 | 1.6 | 4.8 | 0.00 | 0.03 | 0.00 | 84 | 999.6 |
| 20260503130549 | 12 | 211 | 1.6 | 4.8 | 0.00 | 0.03 | 0.00 | 84 | 999.5 |
| 20260503110539 | 13 | 227 | 0.0 | 0.0 | 0.00 | 0.03 | 0.00 | 85 | 999.9 |
| 20260503081611 | 15 | 227 | 3.2 | 4.8 | 0.00 | 0.03 | 0.00 | 84 | 1000.3 |
| 20260503081050 | 14 | 227 | 3.2 | 4.8 | 0.00 | 0.03 | 0.00 | 84 | 1000.2 |
| 20260503080539 | 14 | 227 | 3.2 | 4.8 | 0.00 | 0.03 | 0.00 | 84 | 1000.2 |
| 20260503072547 | 14 | 227 | 3.2 | 8.0 | 0.00 | 0.03 | 0.00 | 86 | 1000.4 |
| 20260503072037 | 14 | 238 | 1.6 | 6.4 | 0.00 | 0.03 | 0.00 | 86 | 1000.4 |
| 20260503071558 | 14 | 238 | 3.2 | 6.4 | 0.00 | 0.03 | 0.00 | 86 | 1000.3 |
| 20260503071045 | 14 | 237 | 3.2 | 6.4 | 0.00 | 0.03 | 0.00 | 86 | 1000.3 |
| 20260503070536 | 14 | 244 | 3.2 | 6.4 | 0.00 | 0.03 | 0.00 | 85 | 1000.3 |
| 20260503055037 | 14 | 244 | 3.2 | 4.8 | 0.00 | 0.03 | 0.03 | 84 | 1000.4 |
| 20260503054600 | 14 | 245 | 3.2 | 4.8 | 0.00 | 0.03 | 0.03 | 84 | 1000.4 |
| 20260503054049 | 14 | 245 | 1.6 | 4.8 | 0.00 | 0.03 | 0.03 | 84 | 1000.4 |
| 20260503053537 | 14 | 234 | 1.6 | 4.8 | 0.00 | 0.03 | 0.03 | 84 | 1000.4 |
| 20260503053059 | 14 | 294 | 0.0 | 3.2 | 0.00 | 0.03 | 0.03 | 84 | 1000.5 |
| 20260503052547 | 15 | 294 | 1.6 | 3.2 | 0.00 | 0.03 | 0.03 | 83 | 1000.4 |
| 20260503052036 | 15 | 294 | 1.6 | 6.4 | 0.00 | 0.03 | 0.03 | 83 | 1000.5 |
| 20260503051559 | 15 | 294 | 3.2 | 6.4 | 0.00 | 0.03 | 0.03 | 83 | 1000.4 |
| 20260503051048 | 15 | 234 | 3.2 | 4.8 | 0.00 | 0.03 | 0.03 | 82 | 1000.5 |
| 20260503050539 | 15 | 234 | 0.0 | 0.0 | 0.00 | 0.03 | 0.03 | 83 | 1000.4 |
| 20260503050101 | 15 | 302 | 0.0 | 0.0 | 0.00 | 0.03 | 0.03 | 82 | 1000.4 |
| 20260503045547 | 15 | 302 | 0.0 | 0.0 | 0.00 | 0.03 | 0.03 | 82 | 1000.5 |
| 20260503045034 | 15 | 305 | 0.0 | 0.0 | 0.00 | 0.03 | 0.03 | 82 | 1000.3 |
| 20260503044557 | 15 | 305 | 0.0 | 0.0 | 0.00 | 0.03 | 0.03 | 82 | 1000.3 |
| 20260503044046 | 15 | 306 | 0.0 | 0.0 | 0.00 | 0.03 | 0.03 | 82 | 1000.3 |
| 20260503043534 | 15 | 308 | 0.0 | 0.0 | 0.00 | 0.03 | 0.03 | 81 | 1000.3 |
| 20260503043004 | 15 | 308 | 0.0 | 3.2 | 0.00 | 0.03 | 0.03 | 81 | 1000.4 |
| 20260503042555 | 15 | 308 | 0.0 | 4.8 | 0.00 | 0.03 | 0.03 | 81 | 1000.4 |
| 20260503042044 | 15 | 308 | 1.6 | 4.8 | 0.00 | 0.03 | 0.03 | 80 | 1000.4 |
| 20260503041505 | 16 | 275 | 3.2 | 4.8 | 0.00 | 0.03 | 0.03 | 80 | 1000.4 |
| 20260503041056 | 16 | 229 | 0.0 | 0.0 | 0.00 | 0.03 | 0.03 | 79 | 1000.5 |
| 20260503040544 | 16 | 229 | 0.0 | 0.0 | 0.00 | 0.03 | 0.03 | 79 | 1000.5 |
| 20260503040004 | 16 | 229 | 0.0 | 0.0 | 0.00 | 0.03 | 0.03 | 78 | 1000.4 |
| 20260503035555 | 16 | 229 | 0.0 | 0.0 | 0.00 | 0.03 | 0.03 | 78 | 1000.3 |
| 20260503035042 | 16 | 229 | 0.0 | 0.0 | 0.00 | 0.03 | 0.03 | 78 | 1000.2 |
| 20260503034503 | 16 | 229 | 0.0 | 0.0 | 0.00 | 0.03 | 0.03 | 78 | 1000.1 |
| 20260503034054 | 16 | 229 | 0.0 | 0.0 | 0.00 | 0.03 | 0.03 | 77 | 1000.0 |
| 20260503033545 | 16 | 229 | 0.0 | 0.0 | 0.00 | 0.03 | 0.03 | 77 | 999.9 |
| 20260503033103 | 16 | 229 | 0.0 | 0.0 | 0.00 | 0.03 | 0.03 | 77 | 999.9 |
| 20260503032551 | 17 | 229 | 0.0 | 0.0 | 0.00 | 0.03 | 0.03 | 76 | 999.8 |
| 20260503032042 | 17 | 229 | 0.0 | 0.0 | 0.00 | 0.03 | 0.03 | 76 | 999.8 |
| 20260503031502 | 17 | 229 | 0.0 | 0.0 | 0.00 | 0.03 | 0.03 | 75 | 999.7 |
| 20260503031052 | 17 | 229 | 0.0 | 0.0 | 0.00 | 0.03 | 0.03 | 75 | 999.7 |
| 20260503030541 | 17 | 229 | 0.0 | 4.8 | 0.00 | 0.03 | 0.03 | 75 | 999.8 |
| 20260503025550 | 17 | 229 | 0.0 | 6.4 | 0.00 | 0.03 | 0.03 | 74 | 999.8 |